Weather Roundup
Issued by NWS Chicago, IL

Home | Current Version | Previous Version | Graphics & Text | Print | Product List | Glossary On
Versions: 1 2 3 4 5 6 7 8 9 10 11 12 13 14 15 16 17 18 19 20 21 22 23 24 25 26 27 28 29 30 31 32 33 34 35 36 37 38 39 40 41 42 43 44 45 46 47 48 49 50
000
NZUS59 KLOT 210310
HRRLOT

CHICAGO AREA WEATHER ROUNDUP
NATIONAL WEATHER SERVICE CHICAGO/ROMEOVILLE IL
1000 PM CDT MON OCT 20 2014

NOTE: "FAIR" INDICATES FEW OR NO CLOUDS BELOW 12,000 FEET WITH NO
SIGNIFICANT WEATHER AND/OR OBSTRUCTIONS TO VISIBILITY.

* THESE STATIONS ARE NOT UNDER NWS QUALITY CONTROL. THEY ALSO MAY NOT
  REPORT WEATHER SUCH AS PRECIPITATION OR FOG.

ILZ005-006-012>014-019>023-210400-
NORTHEAST ILLINOIS

CITY           SKY/WX    TMP DP  RH WIND       PRES   REMARKS
OHARE          MOCLDY    53  41  63 N8        29.99R
MIDWAY         MOCLDY    55  42  61 N10       29.99R
AURORA         CLOUDY    53  41  63 N8        30.01R
LANSING*       CLOUDY    53  45  75 N8        29.99R
JOLIET*        CLOUDY    54  41  62 N7        29.99S
WAUKEGAN       CLOUDY    51  42  71 NW6       29.99S
DUPAGE AIRPORT CLOUDY    53  41  63 N6        30.00R
WHEELING       CLOUDY    54  42  64 N8        30.01S
KANKAKEE*      CLOUDY    53  48  85 N3        30.00R
MORRIS*        CLOUDY    53  44  72 CALM      29.99R
LEWIS AIRPORT* CLOUDY    54  41  62 N7        30.00R
NORTHERLY IS     N/A     54  41  61 N14         N/A
$$

WIZ051-052-058>065-066-070>072-210400-
SOUTHEAST WISCONSIN

CITY           SKY/WX    TMP DP  RH WIND       PRES   REMARKS
MILWAUKEE      MOCLDY    51  42  71 N7        30.01R
KENOSHA*       CLOUDY    51  43  74 NW6       30.00S
RACINE*        CLOUDY    51  45  79 NW7       30.02R
BURLINGTON     CLOUDY    49  41  71 N7        30.01S
WAUKESHA       CLOUDY    46  41  81 NW5       30.02R
WEST BEND      CLOUDY    48  41  76 NW3       30.01R
$$

INZ001>003-010>013-019-020-210400-
NORTHWEST INDIANA

CITY           SKY/WX    TMP DP  RH WIND       PRES   REMARKS
GARY*          CLOUDY    55  45  68 N8        29.99S
MICHIGAN CITY* NOT AVBL
RENSSELAER*    NOT AVBL
VALPARAISO     CLOUDY    52  44  74 N7        29.98R
$$

LMZ740>746-210400-
SOUTHERN LAKE MICHIGAN

STATION/POSITION TIME  SKY/WX   TEMP WIND        PRES    VSBY
                                AIR  DIR/SP/G
                 (UTC)          (F)  (DEG/KT/KT) (MB)    (MI)
HARRISON CRIB    0300            54  340/ 17/ 19   N/A
BURNHAM HARBOR   0300            54  330/ 11/ 16   N/A
CALUMET HARBOR   NOT AVBL
BURNS HARBOR     NOT AVBL
MICHIGAN CITY    0300            53  340/ 19/ 22   N/A
$$

ABBREVIATIONS USED IN REMARKS
   TC - TEMPERATURE IN CELSIUS
  WCI - WIND CHILL INDEX
   HX - HEAT INDEX
  VSB - VISIBILITY
$$


USA.gov is the U.S. government's official web portal to all federal, state and local government web resources and services.